Buffalo, NY

10:01 PM EDT on October 22, 2019 (GMT -0400)
Buffalo Niagara International

Weather History for KBUF - September, 2019

Change the Weather History Date:

Saturday, September 21, 2019

  Actual Average Record
Temperature  
Mean Temperature 72 °F 60 °F  
Max Temperature 84 °F 69 °F 89 °F (2018)
Min Temperature 59 °F 52 °F 33 °F (1973)
Degree Days  
Heating Degree Days 0 6  
Month to date heating degree days 21 69  
Since 1 July heating degree days 24 96  
Cooling Degree Days 7 1  
Month to date cooling degree days 35 46  
Year to date cooling degree days 580 533  
Growing Degree Days 22 (Base 50)    
Moisture  
Dew Point 59 °F    
Average Humidity 65    
Maximum Humidity 84    
Minimum Humidity 45    
Precipitation  
Precipitation 0.00 in 0.16 in 2.79 in (2013)
Month to date precipitation 4.52 2.63  
Year to date precipitation 32.89 27.79  
Snow  
Snow 0.00 in 0.00 in 0.00 in ()
Month to date snowfall 0.0 0.0  
Since 1 July snowfall 0.0 0.0  
Since 1 September snowfall 0.0 0.0  
Snow Depth 0.00 in    
Sea Level Pressure  
Sea Level Pressure 30.17 in    
Wind  
Wind Speed 6 mph (South)    
Max Wind Speed 14 mph    
Max Gust Speed 19 mph    
Visibility 10 miles    
Events      
T = Trace of Precipitation, MM = Missing Value Source: NWS Daily Summary

Daily Weather History Graph

Daily Weather History Graph

Search for Another Location

Airport or City:

Astronomy

Sep. 21, 2019 Rise Set
Actual Time 7:00 AM EDT 7:14 PM EDT
Civil Twilight 6:32 AM EDT 7:42 PM EDT
Nautical Twilight 5:59 AM EDT 8:15 PM EDT
Astronomical Twilight 5:25 AM EDT 8:49 PM EDT
Moon 11:40 PM EDT (9/21) 2:14 PM EDT (9/21)
Length of Visible Light 13h 10m
Length of Day
12h 13m
Waning Gibbous, 55% of the Moon is Illuminated
Sep 21
Waning Gibbous
Sep 21
Last Quarter
Sep 28
New
Oct 5
First Quarter
Oct 13
Full

Hourly Weather History & Observations

Time (EDT) Temp. Heat Index Dew Point Humidity Pressure Visibility Wind Dir Wind Speed Gust Speed Precip Events Conditions
12:54 AM 63.0 °F - 55.9 °F 78% 30.18 in 10.0 mi SSE 4.6 mph - N/A   Mostly Cloudy
1:54 AM 62.1 °F - 55.9 °F 80% 30.18 in 10.0 mi SSE 6.9 mph - N/A   Mostly Cloudy
2:54 AM 61.0 °F - 55.0 °F 81% 30.19 in 10.0 mi SSE 4.6 mph - N/A   Mostly Cloudy
3:54 AM 60.1 °F - 55.0 °F 83% 30.18 in 10.0 mi SSE 6.9 mph - N/A   Scattered Clouds
4:54 AM 60.1 °F - 54.0 °F 80% 30.18 in 10.0 mi SSE 6.9 mph - N/A   Scattered Clouds
5:54 AM 60.1 °F - 53.1 °F 78% 30.19 in 10.0 mi SE 5.8 mph - N/A   Scattered Clouds
6:54 AM 60.1 °F - 53.1 °F 78% 30.20 in 10.0 mi SE 5.8 mph - N/A   Partly Cloudy
7:54 AM 60.1 °F - 54.0 °F 80% 30.22 in 10.0 mi South 3.5 mph - N/A   Partly Cloudy
8:54 AM 64.9 °F - 55.0 °F 70% 30.22 in 10.0 mi SSE 4.6 mph - N/A   Scattered Clouds
9:54 AM 70.0 °F - 55.9 °F 61% 30.21 in 10.0 mi SSE 3.5 mph - N/A   Partly Cloudy
10:54 AM 75.9 °F - 59.0 °F 56% 30.20 in 10.0 mi SSW 6.9 mph - N/A   Partly Cloudy
11:54 AM 79.0 °F - 60.1 °F 52% 30.19 in 10.0 mi SSW 3.5 mph - N/A   Partly Cloudy
12:54 PM 81.0 °F 81.1 °F 57.9 °F 45% 30.18 in 10.0 mi SSE 4.6 mph - N/A   Scattered Clouds
1:54 PM 82.9 °F 82.8 °F 59.0 °F 44% 30.16 in 10.0 mi South 10.4 mph - N/A   Scattered Clouds
2:54 PM 82.9 °F 83.3 °F 61.0 °F 47% 30.14 in 10.0 mi Variable 4.6 mph - N/A   Scattered Clouds
3:54 PM 82.9 °F 83.7 °F 62.1 °F 49% 30.13 in 10.0 mi WSW 9.2 mph - N/A   Partly Cloudy
4:54 PM 82.0 °F 82.7 °F 61.0 °F 49% 30.13 in 10.0 mi SSW 12.7 mph - N/A   Scattered Clouds
5:54 PM 82.0 °F 83.0 °F 62.1 °F 51% 30.13 in 10.0 mi SSW 6.9 mph - N/A   Partly Cloudy
6:54 PM 79.0 °F - 62.1 °F 56% 30.12 in 10.0 mi SW 5.8 mph - N/A   Partly Cloudy
7:54 PM 73.9 °F - 62.1 °F 66% 30.12 in 10.0 mi SSW 8.1 mph - N/A   Partly Cloudy
8:54 PM 72.0 °F - 63.0 °F 73% 30.13 in 10.0 mi SW 3.5 mph - N/A   Clear
9:54 PM 72.0 °F - 62.1 °F 71% 30.13 in 10.0 mi SSW 3.5 mph - N/A   Partly Cloudy
10:54 PM 70.0 °F - 63.0 °F 78% 30.13 in 10.0 mi SSE 6.9 mph - N/A   Partly Cloudy
11:54 PM 68.0 °F - 63.0 °F 84% 30.12 in 10.0 mi South 5.8 mph - N/A   Scattered Clouds